User: anonymous
Location: Caltech
(34.1382°N, 118.1253°W)
Time: 09:23:37
(UTC-07:00)
Language:

Courier 1B - Orbit

View from above orbital plane
View from above orbital plane
View from above satellite
View from above satellite

Ground track
Ground track

The orbit data is extracted from the following two-line orbital elements,

1 00058U 60013A   14265.37542543  .00000107  00000-0  36833-4 0  7717
2 00058 028.3271 283.2606 0165092 004.3165 355.8771 13.46280669656601
Epoch (UTC): 22 September 2014 09:00:36
Eccentricity: 0.0165092
inclination: 28.3271°
perigee height: 963 km
apogee height: 1209 km
right ascension of ascending node: 283.2606°
argument of perigee: 4.3165°
revolutions per day: 13.46280669
mean anomaly at epoch: 355.8771°
orbit number at epoch: 65660

The dashed part of the orbit path shows where the satellite is in the earth's shadow,  

DLR